Park Rapids, MN

1:43 PM CDT on October 20, 2017 (GMT -0500)
Park Rapids Municipal

Weather History for KPKD - October, 2012

Change the Weather History Date:

Wednesday, October 24, 2012

  Actual Average Record
Temperature  
Mean Temperature 44 °F -  
Max Temperature 52 °F 52 °F 73 °F (1989)
Min Temperature 35 °F 31 °F 14 °F (1955)
Degree Days  
Heating Degree Days 22    
Moisture  
Dew Point 41 °F    
Average Humidity 90    
Maximum Humidity 100    
Minimum Humidity 76    
Precipitation  
Precipitation 0.05 in - - ()
Sea Level Pressure  
Sea Level Pressure 29.89 in    
Wind  
Wind Speed 9 mph (NW)    
Max Wind Speed 14 mph    
Max Gust Speed 21 mph    
Visibility 9 miles    
Events Rain    
Averages and records for this station are not official NWS values.
T = Trace of Precipitation, MM = Missing Value Source: NWS Daily Summary

Daily Weather History Graph

Daily Weather History Graph

Search for Another Location

Airport or City:

Trip Planner

Search our weather history database for the weather conditions in past years. The results will help you decide how hot, cold, wet, or windy it might be!

Date:

Astronomy

Oct. 24, 2012 Rise Set
Actual Time 7:51 AM CDT 6:16 PM CDT
Civil Twilight 7:20 AM CDT 6:47 PM CDT
Nautical Twilight 6:45 AM CDT 7:22 PM CDT
Astronomical Twilight 6:09 AM CDT 7:58 PM CDT
Moon 3:48 PM CDT (10/24) 2:30 AM CDT (10/24)
Length of Visible Light 11h 26m
Length of Day
10h 24m
Waxing Gibbous, 76% of the Moon is Illuminated
Oct 24
Waxing Gibbous
Oct 29
Full
Nov 6
Last Quarter
Nov 13
New
Nov 20
First Quarter

Hourly Weather History & Observations

Time (CDT) Temp. Windchill Dew Point Humidity Pressure Visibility Wind Dir Wind Speed Gust Speed Precip Events Conditions
12:48 AM 51.8 °F - 51.8 °F 100% 29.75 in 7.0 mi WSW 5.8 mph - N/A   Overcast
12:53 AM 52.0 °F - 52.0 °F 100% 29.78 in 8.0 mi West 6.9 mph - N/A   Overcast
1:25 AM 51.8 °F - 51.8 °F 100% 29.78 in 10.0 mi West 10.4 mph - N/A   Overcast
1:53 AM 52.0 °F - 51.1 °F 97% 29.81 in 10.0 mi WNW 9.2 mph - N/A   Overcast
2:05 AM 51.8 °F - 50.0 °F 94% 29.79 in 8.0 mi WNW 12.7 mph 20.7 mph N/A   Overcast
2:23 AM 50.0 °F - 48.2 °F 94% 29.81 in 9.0 mi WNW 13.8 mph - N/A   Overcast
2:37 AM 50.0 °F - 48.2 °F 94% 29.81 in 10.0 mi WNW 10.4 mph - N/A   Overcast
2:53 AM 48.9 °F - 46.9 °F 93% 29.83 in 10.0 mi WNW 11.5 mph - N/A   Overcast
3:53 AM 46.9 °F - 45.0 °F 93% 29.85 in 10.0 mi NW 10.4 mph - N/A   Overcast
4:53 AM 46.0 °F 43.9 °F 44.1 °F 93% 29.84 in 10.0 mi NW 4.6 mph - N/A   Overcast
5:19 AM 46.4 °F 44.3 °F 44.6 °F 93% 29.82 in 10.0 mi WNW 4.6 mph - N/A   Overcast
5:53 AM 46.0 °F 40.6 °F 43.0 °F 89% 29.87 in 10.0 mi NW 11.5 mph - N/A   Overcast
6:05 AM 46.4 °F 41.9 °F 42.8 °F 87% 29.85 in 10.0 mi NW 9.2 mph - N/A   Overcast
6:53 AM 45.0 °F 41.8 °F 43.0 °F 93% 29.90 in 10.0 mi NW 5.8 mph - N/A   Overcast
7:53 AM 45.0 °F - 43.0 °F 93% 29.92 in 10.0 mi Calm Calm - N/A   Overcast
8:53 AM 45.0 °F 41.2 °F 44.1 °F 97% 29.94 in 2.5 mi West 6.9 mph - N/A   Overcast
8:59 AM 44.6 °F 40.7 °F 42.8 °F 93% 29.91 in 3.0 mi WNW 6.9 mph - N/A   Overcast
9:32 AM 44.6 °F 40.2 °F 42.8 °F 93% 29.90 in 7.0 mi NW 8.1 mph - N/A   Overcast
9:53 AM 44.1 °F 40.8 °F 42.1 °F 93% 29.92 in 5.0 mi NW 5.8 mph - N/A   Overcast
10:53 AM 45.0 °F 41.2 °F 42.1 °F 90% 29.90 in 8.0 mi NNW 6.9 mph - N/A   Overcast
11:53 AM 45.0 °F 41.2 °F 42.1 °F 90% 29.91 in 8.0 mi NNW 6.9 mph - N/A   Overcast
12:53 PM 45.0 °F 40.6 °F 41.0 °F 86% 29.91 in 10.0 mi NW 8.1 mph - N/A   Overcast
1:53 PM 45.0 °F 40.1 °F 41.0 °F 86% 29.93 in 10.0 mi NW 9.2 mph - N/A   Overcast
2:09 PM 44.6 °F 39.2 °F 41.0 °F 87% 29.90 in 10.0 mi NW 10.4 mph - N/A   Overcast
2:53 PM 45.0 °F 40.6 °F 39.0 °F 80% 29.92 in 10.0 mi NNW 8.1 mph - N/A   Overcast
3:34 PM 44.6 °F 39.2 °F 37.4 °F 76% 29.89 in 10.0 mi NNW 10.4 mph - N/A   Overcast
3:53 PM 44.1 °F 37.4 °F 37.9 °F 79% 29.92 in 10.0 mi NNW 13.8 mph - N/A   Overcast
4:00 PM 42.8 °F 36.2 °F 37.4 °F 81% 29.89 in 10.0 mi NNW 12.7 mph - N/A   Overcast
4:53 PM 42.1 °F 34.9 °F 37.0 °F 82% 29.92 in 10.0 mi NNW 13.8 mph - N/A   Overcast
5:53 PM 41.0 °F 34.3 °F 36.0 °F 82% 29.91 in 10.0 mi North 11.5 mph - N/A   Mostly Cloudy
6:00 PM 41.0 °F 35.2 °F 35.6 °F 81% 29.88 in 10.0 mi North 9.2 mph - N/A   Mostly Cloudy
6:21 PM 41.0 °F 35.8 °F 37.4 °F 87% 29.88 in 10.0 mi North 8.1 mph - N/A   Mostly Cloudy
6:53 PM 41.0 °F 36.4 °F 37.0 °F 86% 29.92 in 10.0 mi North 6.9 mph - N/A   Mostly Cloudy
7:53 PM 41.0 °F 35.8 °F 37.4 °F 87% 29.89 in 10.0 mi NNW 8.1 mph - N/A   Mostly Cloudy
8:03 PM 41.0 °F 36.4 °F 37.4 °F 87% 29.89 in 10.0 mi NNW 6.9 mph - N/A   Overcast
8:53 PM 39.9 °F 33.9 °F 36.0 °F 86% 29.94 in 10.0 mi NNW 9.2 mph - N/A   Overcast
9:53 PM 39.0 °F 31.8 °F 35.1 °F 86% 29.97 in 10.0 mi NNW 11.5 mph - 0.00 in Rain Light Rain
10:19 PM 37.4 °F 30.3 °F 35.6 °F 93% 29.93 in 9.0 mi NNW 10.4 mph - 0.01 in Rain Light Rain
10:36 PM 37.4 °F 30.3 °F 35.6 °F 93% 29.94 in 8.0 mi NNW 10.4 mph - 0.01 in Rain Light Rain
10:53 PM 37.0 °F 29.8 °F 35.1 °F 93% 29.98 in 8.0 mi NNW 10.4 mph - 0.01 in Rain Light Rain
11:00 PM 37.4 °F 29.8 °F 35.6 °F 93% 29.93 in 6.0 mi NNW 11.5 mph - 0.01 in Rain Light Rain
11:12 PM 35.6 °F 28.0 °F 33.8 °F 93% 29.93 in 6.0 mi North 10.4 mph - 0.02 in Rain Light Rain
11:53 PM 36.0 °F 28.5 °F 34.0 °F 93% 29.94 in 6.0 mi North 10.4 mph - 0.04 in Rain Light Rain